Location: Arbon
(43.0005°N, 0.7472°E)
Time: 01:20:40
(UTC+00:00)

Vanguard 3 - Pass Details

Date: 04 December 2020
Orbit: 508 x 3262 km, 33.3° (Epoch: 22 January)

Event Time Altitude Azimuth Distance (km) Brightness Sun altitude
Rises 19:12:58 0° 235° (SW) 3,195 11.0 -30.4°
Reaches altitude 10° 19:16:18 10° 216° (SW) 1,982 9.6 -31.0°
Enters shadow 19:17:12 13° 206° (SSW) 1,719 9.1 -31.2°
